Location: Dodgeville, WI 53533, USA
(43.0344°N, 90.0900°W)
Time: 18:06:52
(UTC-06:00)

N. Korean satellite - Pass Details

Date: 24 January 2021
Orbit: 451 x 502 km, 97.2° (Epoch: 06 March)

Event Time Altitude Azimuth Distance (km) Brightness Sun altitude
Rises 05:27:09 0° 12° (NNE) 2,511 10.3 -21.0°
Reaches altitude 10° 05:29:14 10° 13° (NNE) 1,622 9.3 -20.7°
Maximum altitude 05:32:42 83° 102° (ESE) 468 6.4 -20.0°
Drops below altitude 10° 05:36:07 10° 191° (S) 1,587 9.1 -19.4°
Sets 05:38:07 0° 192° (SSW) 2,450 10.1 -19.1°
